HORIZONS-3E

Last updated on Sat Apr 26 2025 00:02:43 GMT+0000 (Coordinated Universal Time)

1 43633U 18074B 25115.20600338 -.00000028 00000+0 00000+0 0 9994 2 43633 0.0133 174.7338 0000899 125.7729 156.1364 1.00270631 24147
UTC large
Height (km)
Speed (km/s)
/
Latitude / Longitude
Inclination (degrees)
Orbital Period (minutes)
Azimuth
Elevation
Range (km)
Doppler Factor

Next 0 passes for location: London (51.5072 / 0.1276)

Sorry there are no passes over London.